Flag Weather past 2 weeks in Bern, Bern, Switzerland

Now
61 °F

Scattered clouds.


Feels Like: 61 °F
Forecast: 36 / 61 °F
Wind: 2 mph from North

Location: Bern / Belp

Current Time: Oct 30, 2014 at 1:47:31 PM

Latest Report: Oct 30, 2014 at 12:50 PM


Visibility: N/A

Pressure: 30.24 "Hg

Humidity: 59%

Dew point: 46 °F

Location of BernLocation

Historic Weather in Bern — Graph

°F

Bern temperature yesterday

Maximum temperature yesterday: 61 °F (at 2:20 PM)
Minimum temperature yesterday: 37 °F (at 7:50 AM)
Average temperature yesterday: 46 °F

Past Weeks' High & Low Weather Summary

 TemperatureHumidityPressure
High73 °F (Oct 19, 3:20 PM)100% (Oct 15, 9:50 PM)30.30 "Hg (Oct 15, 9:50 PM)
Low30 °F (Oct 24, 7:20 AM)50% (Oct 20, 2:50 PM)29.80 "Hg (Oct 15, 1:50 PM)
Average51 °F86%30.13 "Hg
* Reported Oct 15 1:20 PM — Oct 30 12:50 PM, Bern, Weather by CustomWeather, © 2014

Note: Actual official high and low records may vary slightly from our data, if they occured in-between our weather recording intervals... More about our weather records

Advertising

Bern weather history for previous 24 hours

 ConditionsComfort  
Time TempWeatherWind HumidityBarometerVisibility
12:50 PM
Oct 30
61 °FScattered clouds.2 mph59%30.24 "HgN/A
12:20 PM59 °FScattered clouds.2 mph59%30.24 "HgN/A
11:50 AM57 °FScattered clouds.2 mph63%30.27 "HgN/A
11:20 AM55 °FPassing clouds.2 mph67%30.27 "HgN/A
10:50 AM55 °FPassing clouds.3 mph67%30.27 "HgN/A
10:20 AM50 °FScattered clouds.No wind82%30.27 "HgN/A
9:50 AM48 °FScattered clouds.No wind87%30.27 "HgN/A
9:20 AM46 °FPartly sunny.No wind93%30.24 "HgN/A
8:50 AM48 °FPartly sunny.1 mph87%30.24 "HgN/A
8:20 AM46 °FPartly sunny.2 mph93%30.24 "HgN/A
7:50 AM45 °FPartly sunny.3 mph100%30.24 "HgN/A
7:20 AM45 °FPartly sunny.3 mph93%30.21 "HgN/A
6:50 AM46 °FPassing clouds.2 mph87%30.21 "HgN/A
6:20 AM45 °FPassing clouds.2 mph93%30.21 "HgN/A
5:50 AM46 °FPassing clouds.2 mph87%30.21 "HgN/A
5:20 AM45 °FPartly cloudy.2 mph100%30.21 "HgN/A
4:50 AM45 °FMostly cloudy.1 mph93%30.21 "HgN/A
4:20 AM45 °FPassing clouds.2 mph93%30.21 "HgN/A
3:50 AM46 °FOvercast.2 mph87%30.18 "HgN/A
3:20 AM46 °FPartly cloudy.2 mph87%30.18 "HgN/A
2:50 AM45 °FPartly cloudy.6 mph93%30.18 "HgN/A
2:20 AM45 °FOvercast.7 mph93%30.21 "HgN/A
1:50 AM45 °FPartly cloudy.6 mph93%30.18 "HgN/A
1:20 AM43 °FPassing clouds.1 mph100%30.21 "HgN/A
12:50 AM43 °FOvercast.5 mph93%30.21 "HgN/A
12:20 AM41 °FPassing clouds.2 mph93%30.21 "HgN/A
11:50 PM
Oct 29
41 °FPartly cloudy.3 mph100%30.18 "HgN/A
11:20 PM41 °FPassing clouds.7 mph100%30.18 "HgN/A
10:50 PM39 °FClear.1 mph100%30.18 "Hg6 mi
10:20 PM41 °FClear.2 mph93%30.18 "Hg10 mi
9:50 PM43 °FClear.5 mph93%30.18 "Hg10 mi
9:20 PM41 °FClear.1 mph93%30.18 "Hg10 mi
8:50 PM41 °FClear.1 mph100%30.15 "Hg10 mi
8:20 PM43 °FClear.5 mph93%30.15 "Hg10 mi
7:50 PM43 °FFog.3 mph100%30.15 "HgN/A
7:20 PM43 °FFog.1 mph93%30.12 "HgN/A
6:50 PM45 °FFog.3 mph93%30.12 "HgN/A
6:20 PM46 °FClear.1 mph93%30.12 "Hg10 mi
5:50 PM48 °FClear.1 mph94%30.09 "Hg10 mi
5:20 PM52 °FClear.1 mph82%30.09 "Hg10 mi
4:50 PM55 °FSunny.1 mph67%30.09 "Hg10 mi
4:20 PM57 °FSunny.5 mph67%30.09 "Hg10 mi
3:50 PM59 °FSunny.3 mph68%30.09 "Hg10 mi
3:20 PM61 °FSunny.2 mph52%30.09 "Hg10 mi
2:50 PM61 °FSunny.2 mph55%30.09 "Hg10 mi
2:20 PM61 °FSunny.1 mph59%30.09 "Hg10 mi
1:50 PM59 °FSunny.2 mph63%30.09 "Hg10 mi
1:20 PM59 °FSunny.2 mph63%30.09 "Hg10 mi
Weather by CustomWeather, © 2014

See weather overviewHow to use our weather pages